Tracking 30970 objects as of 3-Jul-2025
HD Live streaming from Space Station
objects crossing your sky now

STARLINK-31485

Track STARLINK-31485 now!
10-day predictions
STARLINK-31485 is classified as:


NORAD ID: 59308
Int'l Code: 2024-056N
Perigee: 489.2 km
Apogee: 491.1 km
Inclination: 43.0 °
Period: 94.3 minutes
Semi major axis: 6861 km
RCS: Unknown
Launch date: March 24, 2024
Source: United States (US)
Launch site: AIR FORCE EASTERN TEST RANGE (AFETR)
Your satellite tracking list
Your tracking list is empty




NASA's NSSDC Master Catalog

Two Line Element Set (TLE):
1 59308U 24056N   25183.40594164  .00002037  00000-0  83477-4 0  9999
2 59308  42.9998 204.4347 0001374 273.3661  86.7034 15.27593462 72871
Source of the keplerian elements: AFSPC